Back to catalog

METEOR 2-17 DEB

AlivePO
NORAD 31399·DEBRIS·🇷🇺 Russia

Launched Jan 30, 1988 from Plesetsk Cosmodrome

Loading…

Next Passes (next 24 hours)

TLE

AgingSource: Space-Track

Epoch: Sep 8, 2026, 11:00 UTC

1 31399U 88005U   26251.45883201  .00002686  00000-0  16074-2 0  9995
2 31399  82.5157 154.0024 0009032 329.2020  30.8621 14.06759791 91114

Track METEOR 2-17 DEB in real time with AllMySat

Download on the App Store